| time (UTC) | temp C | wind direction | speed KPH | gust KPH | rain 1hr cm | rain 24hr cm | rain mn cm | humidity % | barometer mb |
| 20260504234546 | 21 | 5 | 6.4 | 16.1 | 0.00 | 0.00 | 0.00 | 32 | 1006.0 |
| 20260504233042 | 21 | 325 | 4.8 | 17.7 | 0.00 | 0.00 | 0.00 | 32 | 1006.0 |
| 20260504231540 | 22 | 290 | 4.8 | 20.9 | 0.00 | 0.00 | 0.00 | 30 | 1005.7 |
| 20260504230046 | 23 | 341 | 4.8 | 20.9 | 0.00 | 0.00 | 0.00 | 30 | 1005.5 |
| 20260504224630 | 24 | 32 | 6.4 | 20.9 | 0.00 | 0.00 | 0.00 | 29 | 1004.9 |
| 20260504223059 | 25 | 96 | 4.8 | 19.3 | 0.00 | 0.00 | 0.00 | 28 | 1004.8 |
| 20260504221610 | 25 | 293 | 6.4 | 19.3 | 0.00 | 0.00 | 0.00 | 27 | 1004.4 |
| 20260504220052 | 26 | 34 | 4.8 | 17.7 | 0.00 | 0.00 | 0.00 | 28 | 1004.1 |
| 20260504214546 | 26 | 74 | 6.4 | 17.7 | 0.00 | 0.00 | 0.00 | 28 | 1004.0 |
| 20260504213049 | 27 | 70 | 6.4 | 20.9 | 0.00 | 0.00 | 0.00 | 28 | 1003.8 |
| 20260504211637 | 27 | 121 | 4.8 | 16.1 | 0.00 | 0.00 | 0.00 | 29 | 1003.8 |
| 20260504210104 | 27 | 326 | 3.2 | 16.1 | 0.00 | 0.00 | 0.00 | 32 | 1003.7 |
| 20260504204550 | 27 | 223 | 6.4 | 20.9 | 0.00 | 0.00 | 0.00 | 32 | 1003.8 |
| 20260504203052 | 27 | 316 | 6.4 | 16.1 | 0.00 | 0.00 | 0.00 | 31 | 1003.7 |
| 20260504201627 | 27 | 320 | 8.0 | 24.1 | 0.00 | 0.00 | 0.00 | 30 | 1003.6 |
| 20260504200053 | 28 | 295 | 3.2 | 17.7 | 0.00 | 0.00 | 0.00 | 29 | 1003.4 |
| 20260504194557 | 28 | 187 | 6.4 | 14.5 | 0.00 | 0.00 | 0.00 | 29 | 1003.3 |
| 20260504193107 | 28 | 290 | 4.8 | 20.9 | 0.00 | 0.00 | 0.00 | 28 | 1003.2 |
| 20260504191608 | 29 | 70 | 4.8 | 17.7 | 0.00 | 0.00 | 0.00 | 28 | 1003.2 |
| 20260504190155 | 30 | 219 | 4.8 | 14.5 | 0.00 | 0.00 | 0.00 | 25 | 1003.1 |
| 20260504184555 | 29 | 317 | 6.4 | 20.9 | 0.00 | 0.00 | 0.00 | 22 | 1003.1 |
| 20260504183049 | 28 | 329 | 3.2 | 16.1 | 0.00 | 0.00 | 0.00 | 26 | 1002.9 |
| 20260504181600 | 28 | 55 | 4.8 | 17.7 | 0.00 | 0.00 | 0.00 | 24 | 1002.9 |
| 20260504174555 | 28 | 12 | 4.8 | 19.3 | 0.00 | 0.00 | 0.00 | 21 | 1003.5 |
| 20260504173057 | 28 | 312 | 8.0 | 19.3 | 0.00 | 0.00 | 0.00 | 25 | 1003.5 |
| 20260504171600 | 28 | 275 | 3.2 | 12.9 | 0.00 | 0.00 | 0.00 | 27 | 1003.6 |
| 20260504160112 | 24 | 5 | 1.6 | 4.8 | 0.00 | 0.00 | 0.00 | 39 | 1003.8 |
| 20260504150117 | 20 | 257 | 1.6 | 8.0 | 0.00 | 0.00 | 0.00 | 45 | 1003.8 |
| 20260504140127 | 16 | 294 | 1.6 | 11.3 | 0.00 | 0.00 | 0.00 | 56 | 1004.2 |
| 20260504130145 | 11 | 281 | 0.0 | 1.6 | 0.00 | 0.00 | 0.00 | 73 | 1003.5 |
| 20260504081535 | 12 | 134 | 0.0 | 1.6 | 0.00 | 0.00 | 0.00 | 58 | 1004.8 |
| 20260504044549 | 11 | 46 | 0.0 | 0.0 | 0.00 | 0.00 | 0.00 | 62 | 1008.2 |
| 20260504043058 | 11 | 46 | 0.0 | 0.0 | 0.00 | 0.00 | 0.00 | 62 | 1008.3 |
| 20260504041555 | 11 | 46 | 0.0 | 3.2 | 0.00 | 0.00 | 0.00 | 64 | 1008.4 |
| 20260504040132 | 12 | 46 | 0.0 | 3.2 | 0.00 | 0.00 | 0.00 | 63 | 1008.7 |
| 20260504034601 | 12 | 46 | 0.0 | 0.0 | 0.00 | 0.00 | 0.00 | 64 | 1008.8 |
| 20260504033100 | 12 | 46 | 0.0 | 3.2 | 0.00 | 0.00 | 0.00 | 63 | 1008.8 |
| 20260504031627 | 12 | 46 | 0.0 | 0.0 | 0.00 | 0.00 | 0.00 | 60 | 1008.7 |
| 20260504030109 | 13 | 46 | 0.0 | 0.0 | 0.00 | 0.00 | 0.00 | 59 | 1008.9 |
| 20260504024607 | 13 | 46 | 0.0 | 1.6 | 0.00 | 0.00 | 0.00 | 58 | 1009.0 |
| 20260504023112 | 14 | 46 | 0.0 | 3.2 | 0.00 | 0.00 | 0.00 | 57 | 1009.1 |
| 20260504021558 | 15 | 46 | 0.0 | 0.0 | 0.00 | 0.00 | 0.00 | 57 | 1009.3 |
| 20260504020113 | 15 | 46 | 0.0 | 0.0 | 0.00 | 0.00 | 0.00 | 50 | 1009.1 |
| 20260504014557 | 16 | 46 | 0.0 | 0.0 | 0.00 | 0.00 | 0.00 | 46 | 1009.2 |
| 20260504013109 | 17 | 46 | 0.0 | 1.6 | 0.00 | 0.00 | 0.00 | 46 | 1009.2 |
| 20260504011611 | 18 | 46 | 0.0 | 3.2 | 0.00 | 0.00 | 0.00 | 44 | 1009.4 |
| 20260504010101 | 20 | 46 | 0.0 | 3.2 | 0.00 | 0.00 | 0.00 | 41 | 1009.7 |
| 20260504004557 | 21 | 46 | 0.0 | 1.6 | 0.00 | 0.00 | 0.00 | 38 | 1009.8 |
| 20260504003110 | 22 | 46 | 0.0 | 3.2 | 0.00 | 0.00 | 0.00 | 34 | 1010.0 |
| 20260504001606 | 23 | 46 | 0.0 | 1.6 | 0.00 | 0.00 | 0.00 | 32 | 1010.1 |
| 20260504000112 | 22 | 46 | 0.0 | 1.6 | 0.00 | 0.00 | 0.00 | 32 | 1010.2 |